Location: Luxembourg
(49.6117°N, 6.1300°E)
Time: 17:45:10
(UTC+02:00)

Envisat - Visible Passes

Search period start: 13 May 2026 00:00
Search period end: 23 May 2026 00:00
Orbit: 761 x 762 km, 98.4° (Epoch: 13 May)

Date Brightness Start Highest point End Pass type
(mag) Time Alt. Az. Time Alt. Az. Time Alt. Az.
13 May 3.9 03:50:57 10° NNE 03:55:50 45° E 04:00:31 11° S visible
14 May 4.9 03:13:46 10° NE 03:17:43 22° E 03:21:37 10° SE visible
14 May 3.2 04:52:01 10° N 04:57:00 58° WNW 05:01:57 10° SSW visible
15 May 5.6 02:38:30 10° ENE 02:39:21 10° E 02:40:13 10° E visible
15 May 3.2 04:14:08 10° NNE 04:19:13 71° ESE 04:24:13 10° S visible
16 May 4.3 03:36:36 10° NNE 03:41:13 34° E 03:45:48 10° SSE visible
17 May 5.3 02:59:44 10° NE 03:03:01 17° E 03:06:16 10° SE visible
17 May 3.0 04:37:26 10° NNE 04:42:31 75° WNW 04:47:34 10° SSW visible
18 May 3.6 03:59:40 10° NNE 04:04:39 54° E 04:09:36 10° S visible
19 May 4.7 03:22:20 10° NE 03:26:35 26° E 03:30:48 10° SSE visible
19 May 3.4 05:00:52 10° N 05:05:45 49° WNW 05:10:36 10° SW visible
20 May 5.4 02:46:05 10° ENE 02:48:17 13° E 02:50:30 10° ESE visible
20 May 3.1 04:22:54 10° NNE 04:28:00 84° ESE 04:33:04 10° SSW visible
21 May 4.0 03:45:16 10° NNE 03:50:04 41° E 03:54:49 10° SSE visible
22 May 5.1 03:08:11 10° NE 03:11:55 20° E 03:15:36 10° SE visible
22 May 3.1 04:46:16 10° N 04:51:17 64° WNW 04:56:17 10° SSW visible
